Location: Hilton Head Island
(32.2163°N, 80.7526°W)
Time: 03:46:25
(UTC-04:00)

Explorer 7 - Pass Details

Date: 24 February 2026
Orbit: 430 x 542 km, 50.2° (Epoch: 7 March)

Event Time Altitude Azimuth Distance (km) Brightness Sun altitude
Rises 20:09:47 0° 302° (WNW) 2,543 11.2 -24.6°
Reaches altitude 10° 20:12:05 10° 292° (WNW) 1,682 10.2 -25.1°
Maximum altitude 20:15:30 32° 228° (SW) 890 8.2 -25.8°
Enters shadow 20:15:42 31° 221° (SW) 895 8.1 -25.9°
Drops below altitude 10° 20:19:01 10° 165° (SSE) 1,734 - -26.6°
Sets 20:21:24 0° 155° (SSE) 2,636 - -27.1°
